Location: Beuvrequen
(50.8014°N, 1.6652°E)
Time: 04:00:00
(UTC+00:00)

OBJECT-B - Pass Details

Date: 16 October 2021
Orbit: 406 x 416 km, 96.9° (Epoch: 24 October)

Event Time Altitude Azimuth Distance (km) Brightness Sun altitude
Exits shadow 18:39:27 18° 28° (NNE) 1,112 2.7 -16.7°
Drops below altitude 10° 18:40:37 10° 12° (NNE) 1,489 3.5 -16.8°
Sets 18:42:50 0° 358° (N) 2,359 4.7 -17.2°
